| time (UTC) | temp F | wind direction | speed knots | gust knots | rain 1hr in | rain 24hr in | rain mn in | humidity % | barometer mb |
| 20260503032720 | 38 | 0.0 | 0.0 | 0.00 | 0.00 | 0.00 | 68 | 1015.2 | |
| 20260503031721 | 39 | 0.0 | 0.0 | 0.00 | 0.00 | 0.00 | 67 | 1015.2 | |
| 20260503030756 | 39 | 0.0 | 0.0 | 0.00 | 0.00 | 0.00 | 67 | 1015.3 | |
| 20260503025721 | 39 | 0.0 | 0.0 | 0.00 | 0.00 | 0.00 | 65 | 1015.4 | |
| 20260503024756 | 39 | 0.0 | 0.0 | 0.00 | 0.00 | 0.00 | 64 | 1015.5 | |
| 20260503023720 | 40 | 0.0 | 0.0 | 0.00 | 0.00 | 0.00 | 64 | 1015.6 | |
| 20260503022720 | 40 | 0.0 | 1.7 | 0.00 | 0.00 | 0.00 | 62 | 1015.6 | |
| 20260503021720 | 41 | 0.0 | 0.0 | 0.00 | 0.00 | 0.00 | 61 | 1015.6 | |
| 20260503020720 | 41 | 0.0 | 0.0 | 0.00 | 0.00 | 0.00 | 61 | 1015.5 | |
| 20260503015720 | 42 | 0.0 | 0.0 | 0.00 | 0.00 | 0.00 | 59 | 1015.5 | |
| 20260503014755 | 42 | 0.0 | 0.0 | 0.00 | 0.00 | 0.00 | 58 | 1015.4 | |
| 20260503013720 | 43 | 0.0 | 0.0 | 0.00 | 0.00 | 0.00 | 55 | 1015.3 | |
| 20260503012720 | 43 | 0.0 | 0.0 | 0.00 | 0.00 | 0.00 | 54 | 1015.3 | |
| 20260503011720 | 44 | 0.0 | 0.0 | 0.00 | 0.00 | 0.00 | 54 | 1015.3 | |
| 20260503010720 | 45 | 0.0 | 1.7 | 0.00 | 0.00 | 0.00 | 53 | 1015.4 | |
| 20260503005720 | 45 | 0.0 | 0.0 | 0.00 | 0.00 | 0.00 | 52 | 1015.2 | |
| 20260503004720 | 46 | 0.0 | 0.0 | 0.00 | 0.00 | 0.00 | 50 | 1015.1 | |
| 20260503003720 | 47 | 0.0 | 0.0 | 0.00 | 0.00 | 0.00 | 49 | 1015.1 | |
| 20260503002720 | 48 | 0.0 | 0.0 | 0.00 | 0.00 | 0.00 | 48 | 1015.1 | |
| 20260503001720 | 48 | 0.0 | 0.0 | 0.00 | 0.00 | 0.00 | 47 | 1015.1 | |
| 20260503000720 | 49 | 0.0 | 0.0 | 0.00 | 0.00 | 0.00 | 42 | 1015.1 | |
| 20260502235720 | 49 | 315 | 0.9 | 3.5 | 0.00 | 0.00 | 0.00 | 41 | 1015.0 |
| 20260502234720 | 49 | 0.0 | 0.9 | 0.00 | 0.00 | 0.00 | 38 | 1015.0 | |
| 20260502233720 | 50 | 293 | 0.9 | 3.5 | 0.00 | 0.00 | 0.00 | 37 | 1015.0 |
| 20260502232720 | 50 | 270 | 3.5 | 7.8 | 0.00 | 0.00 | 0.00 | 39 | 1015.0 |
| 20260502231720 | 50 | 338 | 2.6 | 4.3 | 0.00 | 0.00 | 0.00 | 37 | 1015.0 |
| 20260502230755 | 50 | 338 | 0.9 | 3.5 | 0.00 | 0.00 | 0.00 | 42 | 1015.0 |
| 20260502225720 | 50 | 315 | 0.9 | 5.2 | 0.00 | 0.00 | 0.00 | 42 | 1015.0 |
| 20260502224720 | 51 | 0.0 | 0.9 | 0.00 | 0.00 | 0.00 | 40 | 1015.2 | |
| 20260502223757 | 51 | 338 | 1.7 | 4.3 | 0.00 | 0.00 | 0.00 | 42 | 1015.1 |
| 20260502222832 | 51 | 0.0 | 1.7 | 0.00 | 0.00 | 0.00 | 41 | 1015.1 | |
| 20260502221757 | 51 | 0.0 | 0.9 | 0.00 | 0.00 | 0.00 | 40 | 1015.2 | |
| 20260502220720 | 52 | 0.0 | 0.9 | 0.00 | 0.00 | 0.00 | 41 | 1015.3 | |
| 20260502215720 | 52 | 180 | 0.9 | 3.5 | 0.00 | 0.00 | 0.00 | 42 | 1015.2 |
| 20260502214755 | 52 | 0.0 | 0.0 | 0.00 | 0.00 | 0.00 | 42 | 1015.4 | |
| 20260502213720 | 52 | 0.0 | 1.7 | 0.00 | 0.00 | 0.00 | 44 | 1015.4 | |
| 20260502212722 | 52 | 293 | 4.3 | 7.8 | 0.00 | 0.00 | 0.00 | 43 | 1015.3 |
| 20260502211757 | 53 | 225 | 5.2 | 10.4 | 0.00 | 0.00 | 0.00 | 41 | 1015.4 |
| 20260502210722 | 53 | 0.0 | 0.9 | 0.00 | 0.00 | 0.00 | 42 | 1015.4 | |
| 20260502205722 | 53 | 225 | 0.9 | 3.5 | 0.00 | 0.00 | 0.00 | 43 | 1015.5 |
| 20260502204757 | 52 | 203 | 2.6 | 3.5 | 0.00 | 0.00 | 0.00 | 46 | 1015.7 |
| 20260502203757 | 53 | 203 | 0.9 | 2.6 | 0.00 | 0.00 | 0.00 | 44 | 1015.8 |
| 20260502202722 | 53 | 225 | 5.2 | 7.8 | 0.00 | 0.00 | 0.00 | 46 | 1015.9 |
| 20260502201722 | 53 | 23 | 0.9 | 5.2 | 0.00 | 0.00 | 0.00 | 48 | 1015.9 |
| 20260502200722 | 53 | 338 | 1.7 | 5.2 | 0.00 | 0.00 | 0.00 | 45 | 1016.0 |
| 20260502195722 | 51 | 270 | 0.9 | 2.6 | 0.00 | 0.00 | 0.00 | 46 | 1016.1 |
| 20260502194722 | 50 | 270 | 0.9 | 2.6 | 0.00 | 0.00 | 0.00 | 47 | 1016.3 |
| 20260502193721 | 50 | 203 | 5.2 | 7.8 | 0.00 | 0.00 | 0.00 | 47 | 1016.4 |
| 20260502192721 | 49 | 315 | 1.7 | 4.3 | 0.00 | 0.00 | 0.00 | 54 | 1016.7 |
| 20260502191721 | 49 | 225 | 0.9 | 2.6 | 0.00 | 0.00 | 0.00 | 49 | 1016.6 |
| 20260502190721 | 50 | 293 | 0.9 | 2.6 | 0.00 | 0.00 | 0.00 | 49 | 1016.9 |
| 20260502185721 | 50 | 315 | 0.9 | 1.7 | 0.00 | 0.00 | 0.00 | 47 | 1016.9 |
| 20260502184722 | 50 | 293 | 2.6 | 7.0 | 0.00 | 0.00 | 0.00 | 50 | 1017.0 |
| 20260502183722 | 50 | 270 | 1.7 | 6.1 | 0.00 | 0.00 | 0.00 | 48 | 1017.1 |
| 20260502182722 | 50 | 248 | 1.7 | 4.3 | 0.00 | 0.00 | 0.00 | 49 | 1017.1 |
| 20260502181721 | 51 | 248 | 0.9 | 4.3 | 0.00 | 0.00 | 0.00 | 46 | 1017.2 |
| 20260502180721 | 51 | 248 | 0.9 | 3.5 | 0.00 | 0.00 | 0.00 | 46 | 1017.4 |
| 20260502112621 | 29 | 0.0 | 0.0 | 0.00 | 0.00 | 0.00 | 93 | 1018.2 | |
| 20260502111620 | 28 | 0.0 | 0.0 | 0.00 | 0.00 | 0.00 | 92 | 1018.1 | |
| 20260502110621 | 28 | 0.0 | 0.0 | 0.00 | 0.00 | 0.00 | 91 | 1018.2 | |
| 20260502105656 | 28 | 0.0 | 0.0 | 0.00 | 0.00 | 0.00 | 91 | 1018.1 | |
| 20260502104656 | 28 | 0.0 | 0.0 | 0.00 | 0.00 | 0.00 | 90 | 1018.2 | |
| 20260502103621 | 28 | 0.0 | 0.0 | 0.00 | 0.00 | 0.00 | 90 | 1018.2 | |
| 20260502102620 | 28 | 0.0 | 0.0 | 0.00 | 0.00 | 0.00 | 90 | 1018.1 | |
| 20260502100620 | 29 | 0.0 | 0.0 | 0.00 | 0.00 | 0.00 | 90 | 1018.0 | |
| 20260502090620 | 30 | 0.0 | 0.0 | 0.00 | 0.00 | 0.00 | 87 | 1017.7 | |
| 20260502070622 | 34 | 0.0 | 0.0 | 0.00 | 0.00 | 0.00 | 81 | 1017.7 | |
| 20260502065657 | 34 | 0.0 | 0.0 | 0.00 | 0.00 | 0.00 | 81 | 1017.7 | |
| 20260502064620 | 34 | 0.0 | 0.0 | 0.00 | 0.00 | 0.00 | 80 | 1017.7 | |
| 20260502063655 | 35 | 0.0 | 0.0 | 0.00 | 0.00 | 0.00 | 80 | 1017.8 | |
| 20260502062620 | 35 | 0.0 | 0.0 | 0.00 | 0.00 | 0.00 | 79 | 1017.9 | |
| 20260502061620 | 35 | 0.0 | 0.0 | 0.00 | 0.00 | 0.00 | 78 | 1017.8 | |
| 20260502060732 | 35 | 0.0 | 0.0 | 0.00 | 0.00 | 0.00 | 78 | 1017.9 | |
| 20260502055657 | 35 | 0.0 | 0.0 | 0.00 | 0.00 | 0.00 | 77 | 1017.9 | |
| 20260502054622 | 35 | 0.0 | 0.0 | 0.00 | 0.00 | 0.00 | 77 | 1018.0 | |
| 20260502053622 | 35 | 0.0 | 0.0 | 0.00 | 0.00 | 0.00 | 76 | 1017.8 | |
| 20260502052657 | 35 | 0.0 | 0.0 | 0.00 | 0.00 | 0.00 | 76 | 1017.8 | |
| 20260502051622 | 35 | 0.0 | 0.0 | 0.00 | 0.00 | 0.00 | 75 | 1017.8 | |
| 20260502050622 | 36 | 0.0 | 0.0 | 0.00 | 0.00 | 0.00 | 74 | 1017.8 | |
| 20260502045622 | 36 | 0.0 | 0.0 | 0.00 | 0.00 | 0.00 | 73 | 1017.7 | |
| 20260502044621 | 36 | 0.0 | 0.0 | 0.00 | 0.00 | 0.00 | 72 | 1017.6 | |
| 20260502043622 | 37 | 0.0 | 0.9 | 0.00 | 0.00 | 0.00 | 71 | 1017.6 | |
| 20260502042621 | 37 | 0.0 | 0.0 | 0.00 | 0.00 | 0.00 | 70 | 1017.5 | |
| 20260502041622 | 37 | 0.0 | 0.0 | 0.00 | 0.00 | 0.00 | 70 | 1017.4 | |
| 20260502040622 | 38 | 0.0 | 1.7 | 0.00 | 0.00 | 0.00 | 69 | 1017.6 | |
| 20260502035621 | 38 | 0 | 1.7 | 3.5 | 0.00 | 0.00 | 0.00 | 69 | 1017.5 |
| 20260502034656 | 38 | 0.0 | 0.9 | 0.00 | 0.00 | 0.00 | 69 | 1017.5 | |
| 20260502033621 | 38 | 0 | 1.7 | 3.5 | 0.00 | 0.00 | 0.00 | 68 | 1017.5 |